User: anonymous   Login
Location: Unspecified
(0.0000°N, 0.0000°E)
Time: 01:05:36
(UTC+02:00)
Language:

ARIANE 44L R/B - Orbit

View from above orbital plane
View from above orbital plane
View from above satellite
View from above satellite

Ground track
Ground track

The orbit data is extracted from the following two-line orbital elements,

1 26901U 01039B   14294.35834078  .00007150  00000-0  24573-2 0  1414
2 26901 007.2080 266.6014 6970294 089.2060 013.9126 02.67003461117004
Epoch (UTC): 21 October 2014 08:36:00
Eccentricity: 0.6970294
inclination: 7.2080°
perigee height: 271 km
apogee height: 30867 km
right ascension of ascending node: 266.6014°
argument of perigee: 89.2060°
revolutions per day: 2.67003461
mean anomaly at epoch: 13.9126°
orbit number at epoch: 11700

The dashed part of the orbit path shows where the satellite is in the earth's shadow,  

DLR